www.pogodaiklimat.ru

Погода и климат >> Архив погоды >> Боливия >> Тринидад


ПОГОДА в Тринидаде

  • Прогноз погоды в Тринидаде
  • Монитор погоды в Тринидаде

АРХИВ ПОГОДЫ в Тринидаде

Время (UTC), дата Ветер
(напр.,м/с)
 
Видим.   Явления Облачность Т
(С)
Тd
(С)
f
(%)
Тe
(С)
Тes
(С)
Комфортность P
(гПа)
Po
(гПа)
Тmin
(С)
Tmax
(С)
R
(мм)
R24
(мм)
S
(см)
18 16.08 СЗ 2 5000 м дым 4/0
[Ci fib]
+30.8 +16.7 43 +34 +48 очень
душно
1013.8 995.9
21 16.08 штиль 0 6000 м дым 4/0
[Ci fib]
+30.7 +18.0 47 +35 +37 очень
душно
1011.1 993.3 +32.0
09 17.08 штиль 0 3000 м дым 5/0
[Ci fib]
+18.6 +17.1 91 +19 +19 1010.4 992.6
12 17.08 штиль 0 5000 м дым 5/0
[Ci fib]
+18.6 +15.1 80 +19 +23 1012.5 994.6 +16.2
15 17.08 СЗ 4 7000 м дым 4/0
[Ci fib]
+28.0 +18.3 56 +33 +42 очень
душно
1013.7 995.7
18 17.08 СЗ 5 7000 м дым 3/0
[Ci fib]
+32.8 +18.3 42 +37 +44 очень
душно
1010.8 993.0
21 17.08 СЗ 4 7000 м дым 3/0
[Ci fib]
+33.0 +18.6 43 +38 +39 очень
душно
1008.4 990.8 +34.6
09 18.08 штиль 0 5000 м дым ясно +19.6 +18.1 91 +22 +22 комфорт 1009.8 992.2
12 18.08 штиль 0 5000 м дым ясно +20.5 +18.2 87 +24 +28 комфорт 1012.5 994.7 +19.2
15 18.08 С 4 5000 м дым ясно +30.5 +20.6 56 +38 +48 очень
душно
1014.3 996.3
18 18.08 СЗ 5 5000 м дым 1/1 600 м
[Cu hum]
+33.6 +20.4 46 +40 +47 очень
душно
1011.7 994.0
21 18.08 СЗ 2 5000 м дым 1/1 600 м
[Cu hum]
+33.5 +20.1 45 +40 +41 очень
душно
1009.4 991.7 +35.0
09 19.08 штиль 0 5000 м дым 6/0
[Ci]
+21.5 +19.6 89 +27 +27 душно 1013.7 995.7
12 19.08 ЮВ 4 3000 м дым 4/1 600 м
[Cu med, cong Ac trans]
+23.5 +18.6 74 +28 +29 душно 1015.8 997.8 +20.8
15 19.08 ЮВ 4 5000 м дым 3/0 2000 м
[Ac cast]
+28.2 +17.5 52 +32 +40 душно 1017.0 999.1
18 19.08 ЮЗ 3 5000 м дым 9/5 750 м
[Cu med, cong Ac trans]
+29.2 +17.9 51 +34 +37 очень
душно
1014.3 996.4
21 19.08 Ю 2 6000 м дым 5/1 750 м
[Cu med, cong Ac trans]
+27.2 +18.0 57 +32 +33 очень
душно
1012.2 994.3 +30.8
09 20.08 ЮВ 2 5000 м дым 8/0
[Ci fib]
+19.6 +15.8 79 +22 +22 комфорт 1015.5 997.4
12 20.08 Ю 2 5000 м дым 6/0
[Ci fib]
+19.3 +10.7 57 +21 +24 комфорт 1017.5 999.4 +17.6
15 20.08 ЮВ 3 5000 м дым 6/0 2000 м
[Ac trans]
+27.3 +11.9 38 +28 +37 жарко 1018.8 1000.8
18 20.08 ЮВ 2 5000 м дым 4/0
[Ci fib]
+30.2 +14.5 38 +32 +45 жарко 1016.0 998.1
21 20.08 Ю 2 5000 м дым 3/0
[Ci fib]
+28.8 +16.3 47 +32 +34 душно 1014.5 996.6 +31.2
09 21.08 Ю 2 5000 м дым ясно +17.4 +12.5 73 +18 +18 1017.4 999.2
12 21.08 Ю 2 7000 м дым ясно +17.2 +12.3 73 +18 +21 1019.7 1001.5 +15.4
15 21.08 Ю 4 7000 м дым ясно +25.5 +10.7 39 +26 +38 жарко 1019.9 1001.8
18 21.08 Ю 3 5000 м дым 5/0
[Ci fib]
+30.3 +13.2 35 +32 +43 жарко 1016.3 998.3
21 21.08 ЮВ 2 5000 м дым 5/0
[Ci fib]
+28.6 +11.5 35 +29 +31 жарко 1014.2 996.2 +32.4
09 22.08 штиль 0 5000 м дым 5/0
[Ci fib]
+18.3 +14.6 79 +19 +19 1014.8 996.8
12 22.08 штиль 0 5000 м дым 5/0
[Ci fib]
+20.6 +15.1 71 +23 +27 комфорт 1016.1 998.0 +16.3
15 22.08 штиль 0 5000 м дым 5/0
[Ci fib]
+30.8 +14.3 37 +33 +52 опасность
солнечного
удара
1016.4 998.4
18 22.08 ЮЗ 2 5000 м дым 5/0
[Ci fib]
+33.2 +16.7 37 +36 +50 очень
душно
1013.0 995.2
21 22.08 штиль 0 5000 м дым 5/0
[Ci fib]
+33.8 +19.6 43 +39 +41 очень
душно
1012.3 994.6 +35.1
09 23.08 ЮВ 6 5000 м дым туман 6/0
[Ci]
+23.0 +13.3 54 +26 +26 жарко 1017.6 999.5
12 23.08 ЮВ 7 7000 м дым 5/0
[Ci fib]
+23.0 +12.2 51 +26 +26 жарко 1019.0 1001.0 +19.8
15 23.08 Ю 8 7000 м дым 5/0
[Ci fib]
+27.5 +11.8 38 +29 +32 жарко 1019.8 1001.7

 

Местоположение метеостанции Тринидад (Боливия): широта -14.81 долгота -64.91 высота над уровнем моря 155 м.

В архиве по умолчанию представлена погода в Тринидаде за последнюю неделю. Архивные данные за месяц целиком и за предыдущие месяцы, начиная с января 2011 года, Вы можете получить, выбрав интересующий диапазон дат из раскрывающегося списка и нажав кнопку "Ввод!".


*Определитесь, кто Вы:
робот инопланетянин человек

Внимание! Время в таблицах - всемирное. Для получения местного времени необходимо прибавить поправку, которая равна -4 ч.

Смотрите также архив погоды в соседних городах и на ближайших метеорологических станциях:

Погода в Сан Игнасио де Moксосе (Боливия) (75 км)
Погода в Санта-Ане (Боливия) (130 км)
Погода в Бауресе (Боливия) (131 км)
Погода в Сан-Рамоне (Боливия) (169 км)
Погода в Магдалене (Боливия) (186 км)
Погода в Сан-Хоакине (Боливия) (195 км)
Погода в Сан-Борхе (Боливия) (210 км)
Погода в Ассенсьон де Гуарае (Боливия) (218 км)
Погода в Санта-Розе (Боливия) (226 км)
Погода в Рейесе (Боливия) (272 км)

Пояснения к столбцам:

Ветер - указаны скорость ветра в м/с - средняя за 10 мин, порывы в срок и между сроками (в фигурных скобках) и направление, откуда дует ветер: С - северный, СВ - северо-восточный, В - восточный, ЮВ - юго-восточный, Ю - южный, ЮЗ - юго-западный, З - западный, СЗ - северо-западный.
Видимость - горизонтальная дальность видимости в метрах или километрах. При видимости от 1 до 10 км при отсутствии осадков обычно наблюдается дымка, при ухудшении видимости до 1 км и менее - туман. В сухую погоду видимость может ухудшаться дымом, пылью или мглою.
Явления - указаны атмосферные явления, наблюдавшиеся в срок или в последний час перед сроком; фигурными скобками обозначены явления, наблюдавшиеся между сроками (за 1-3 часа до срока); квадратными скобками обозначены град или гололедные отложения с указанием их диаметра в мм.
Облачность - указаны через наклонную черту общая и нижняя облачность в баллах и высота нижней границы облаков в метрах; квадратными скобками обозначены формы облаков: Ci - перистые, Cs - перисто-слоистые, Cc - перисто-кучевые, Ac - высококучевые, As - высокослоистые, Sc - слоисто-кучевые, Ns - слоисто-дождевые, Cu - кучевые, Cb - кучево-дождевые. Подробнее классификацию облаков см. в Атласе облаков (PDF).
T - Температура воздуха - температура, измеренная на высоте 2 м над землей.
Td - Температура точки росы - температура, при понижении до которой содержащийся в воздухе водяной пар достигнет насыщения.
f - Относительная влажность воздуха - влажноcть воздуха, измеренная на высоте 2 м над землей.
Te - Эффективная температура - температура, которую ощущает одетый по сезону человек в тени. Характеристика душности погоды. При расчете учитывается влияние влажности воздуха и скорости ветра на теплоощущения человека.
Tes - Эффективная температура на солнце - температура, которую ощущает человек, с поправкой на солнечный нагрев. Характеристика знойности погоды. Зависит от высоты солнца над горизонтом, облачности и скорости ветра. Ночью, в пасмурную погоду, а также при ветре 12 м/с и более поправка равна нулю.
P - Атмосферное давление - приведенное к уровню моря атмосферное давление.
Po - Атмосферное давление - измеренное на уровне метеостанции атмосферное давление.
Tmin - Минимальная температура - минимум температуры воздуха на высоте 2 м над землей.
Tmax - Максимальная температура - максимум температуры воздуха на высоте 2 м над землей.
R - Количество осадков - Количество выпавших осадков за период времени, мм. При наведении курсора мыши на число - период времени, за который выпало указанное количество осадков.
R24 - Количество осадков - Количество выпавших осадков за 24 часа, мм.
S - Снежный покров - Высота снежного покрова, см. При наведении курсора мыши на число - состояние снежного покрова и степень покрытия местности в баллах.